LVLRG SABE-SUMU

Flight info

Callsign LVLRG
Flight time 0h 29m
Altitude 13000
Route DORVO8 DORVO A305 TOKAM
Aircraft B350/L-SDF/C

Departure

Time 2026-04-21 22:01
Airport Aeroparque Jorge Newbery (SABE)

Arrival

Time 2026-04-21 22:31
Airport Carrasco General Cesáreo L. Berisso International Airport (SUMU)
Time Latitude Longitude Altitude Speed Heading
2026-04-21 21:36 -34.56169 -58.41432 22 ft 0 kts 33°
2026-04-21 21:55 -34.56166 -58.41441 22 ft 4 kts 242°
2026-04-21 21:55 -34.56173 -58.41501 22 ft 11 kts 296°
2026-04-21 21:56 -34.56132 -58.41493 22 ft 11 kts 60°
2026-04-21 21:56 -34.56109 -58.41437 23 ft 7 kts 38°
2026-04-21 21:56 -34.56048 -58.41389 21 ft 14 kts 31°
2026-04-21 21:56 -34.55958 -58.41320 22 ft 13 kts 31°
2026-04-21 21:57 -34.55896 -58.41359 22 ft 11 kts 296°
2026-04-21 21:57 -34.55862 -58.41436 22 ft 10 kts 299°
2026-04-21 21:57 -34.55831 -58.41508 25 ft 10 kts 295°
2026-04-21 21:57 -34.55803 -58.41581 24 ft 10 kts 295°
2026-04-21 21:58 -34.55774 -58.41653 24 ft 9 kts 296°
2026-04-21 21:58 -34.55745 -58.41724 23 ft 9 kts 296°
2026-04-21 21:58 -34.55709 -58.41789 23 ft 9 kts 304°
2026-04-21 21:58 -34.55675 -58.41853 25 ft 9 kts 295°
2026-04-21 21:59 -34.55683 -58.41895 24 ft 0 kts 219°
2026-04-21 22:00 -34.55719 -58.41931 23 ft 5 kts 200°
2026-04-21 22:00 -34.55744 -58.41888 22 ft 0 kts 123°
2026-04-21 22:01 -34.55758 -58.41862 22 ft 27 kts 123°
2026-04-21 22:01 -34.56030 -58.41373 23 ft 107 kts 124°
2026-04-21 22:01 -34.56505 -58.40493 285 ft 129 kts 127°
2026-04-21 22:01 -34.57022 -58.39532 783 ft 142 kts 123°
2026-04-21 22:02 -34.57554 -58.38453 1228 ft 160 kts 118°
2026-04-21 22:02 -34.57735 -58.37008 1462 ft 189 kts 75°
2026-04-21 22:02 -34.57049 -58.35693 2039 ft 184 kts 35°
2026-04-21 22:02 -34.56088 -58.34784 2845 ft 169 kts 32°
2026-04-21 22:03 -34.55133 -58.33953 3418 ft 173 kts 29°
2026-04-21 22:03 -34.54077 -58.33100 3701 ft 191 kts 32°
2026-04-21 22:03 -34.53019 -58.32123 4252 ft 189 kts 33°
2026-04-21 22:03 -34.52001 -58.31113 4785 ft 193 kts 40°
2026-04-21 22:04 -34.51242 -58.29698 5117 ft 210 kts 70°
2026-04-21 22:04 -34.51161 -58.27922 5563 ft 217 kts 101°
2026-04-21 22:04 -34.51702 -58.26206 6101 ft 215 kts 117°
2026-04-21 22:04 -34.52384 -58.24580 6548 ft 222 kts 117°
2026-04-21 22:05 -34.53098 -58.22865 6852 ft 230 kts 117°
2026-04-21 22:05 -34.53803 -58.21145 7443 ft 224 kts 115°
2026-04-21 22:05 -34.54356 -58.19391 7981 ft 223 kts 108°
2026-04-21 22:05 -34.54838 -58.17606 8515 ft 223 kts 107°
2026-04-21 22:06 -34.55288 -58.15796 9011 ft 226 kts 105°
2026-04-21 22:06 -34.55707 -58.13939 9462 ft 230 kts 105°
2026-04-21 22:06 -34.56123 -58.12061 9992 ft 229 kts 105°
2026-04-21 22:06 -34.56394 -58.10832 10376 ft 226 kts 104°
2026-04-21 22:07 -34.56914 -58.08345 11004 ft 230 kts 103°
2026-04-21 22:07 -34.57290 -58.06498 11577 ft 225 kts 104°
2026-04-21 22:07 -34.57701 -58.04679 12138 ft 225 kts 104°
2026-04-21 22:07 -34.58128 -58.02794 12473 ft 237 kts 104°
2026-04-21 22:08 -34.58416 -58.01480 12783 ft 240 kts 103°
2026-04-21 22:08 -34.58872 -57.99457 12966 ft 260 kts 105°
2026-04-21 22:08 -34.59608 -57.96517 12936 ft 287 kts 107°
2026-04-21 22:08 -34.60035 -57.94939 12978 ft 293 kts 108°
2026-04-21 22:09 -34.60670 -57.92550 12954 ft 303 kts 107°
2026-04-21 22:09 -34.61338 -57.90130 12998 ft 309 kts 109°
2026-04-21 22:09 -34.62068 -57.87660 13005 ft 315 kts 110°
2026-04-21 22:09 -34.62895 -57.85171 12996 ft 319 kts 112°
2026-04-21 22:10 -34.63672 -57.82625 12956 ft 324 kts 109°
2026-04-21 22:10 -34.64442 -57.80043 12960 ft 325 kts 110°
2026-04-21 22:10 -34.65238 -57.77468 12931 ft 328 kts 111°
2026-04-21 22:10 -34.66089 -57.74891 12950 ft 328 kts 113°
2026-04-21 22:11 -34.66970 -57.72339 12952 ft 328 kts 113°
2026-04-21 22:11 -34.67895 -57.69799 12931 ft 329 kts 115°
2026-04-21 22:11 -34.68845 -57.67262 12935 ft 329 kts 115°
2026-04-21 22:11 -34.69802 -57.64740 12898 ft 330 kts 115°
2026-04-21 22:12 -34.70770 -57.62206 12883 ft 330 kts 115°
2026-04-21 22:12 -34.71756 -57.59697 12899 ft 329 kts 116°
2026-04-21 22:12 -34.72768 -57.57206 12905 ft 328 kts 117°
2026-04-21 22:12 -34.73679 -57.54676 12905 ft 327 kts 105°
2026-04-21 22:13 -34.73975 -57.51964 12936 ft 323 kts 91°
2026-04-21 22:13 -34.74117 -57.49236 12926 ft 323 kts 91°
2026-04-21 22:13 -34.74268 -57.46509 12975 ft 322 kts 92°
2026-04-21 22:13 -34.74429 -57.43802 13023 ft 321 kts 92°
2026-04-21 22:14 -34.74623 -57.41099 13011 ft 322 kts 93°
2026-04-21 22:14 -34.74815 -57.38383 13027 ft 322 kts 93°
2026-04-21 22:14 -34.75016 -57.35676 13007 ft 322 kts 94°
2026-04-21 22:14 -34.75239 -57.32957 12999 ft 323 kts 94°
2026-04-21 22:15 -34.75468 -57.30243 12995 ft 323 kts 94°
2026-04-21 22:15 -34.75695 -57.27563 12995 ft 322 kts 94°
2026-04-21 22:15 -34.75925 -57.24856 12996 ft 322 kts 94°
2026-04-21 22:15 -34.76157 -57.22148 12995 ft 322 kts 94°
2026-04-21 22:16 -34.76388 -57.19436 12994 ft 322 kts 94°
2026-04-21 22:16 -34.76642 -57.16461 12996 ft 322 kts 93°
2026-04-21 22:16 -34.76799 -57.14020 12997 ft 321 kts 92°
2026-04-21 22:16 -34.76942 -57.11309 12998 ft 321 kts 91°
2026-04-21 22:17 -34.77075 -57.08603 13001 ft 321 kts 91°
2026-04-21 22:17 -34.77202 -57.05894 13001 ft 321 kts 91°
2026-04-21 22:17 -34.77284 -57.04103 12999 ft 321 kts 91°
2026-04-21 22:18 -34.77570 -56.97775 13000 ft 320 kts 91°
2026-04-21 22:18 -34.77691 -56.95072 13005 ft 320 kts 91°
2026-04-21 22:18 -34.77811 -56.92372 13004 ft 320 kts 91°
2026-04-21 22:18 -34.77932 -56.89669 13004 ft 320 kts 91°
2026-04-21 22:19 -34.78053 -56.86968 13003 ft 320 kts 91°
2026-04-21 22:19 -34.78173 -56.84261 13001 ft 320 kts 91°
2026-04-21 22:19 -34.78292 -56.81559 13005 ft 320 kts 91°
2026-04-21 22:19 -34.78408 -56.78898 13005 ft 319 kts 91°
2026-04-21 22:20 -34.78525 -56.76196 13002 ft 319 kts 91°
2026-04-21 22:20 -34.78639 -56.73504 13003 ft 319 kts 91°
2026-04-21 22:20 -34.78755 -56.70805 13004 ft 319 kts 91°
2026-04-21 22:20 -34.78876 -56.68114 13013 ft 319 kts 91°
2026-04-21 22:21 -34.79012 -56.65448 12978 ft 312 kts 91°
2026-04-21 22:21 -34.79163 -56.62818 12694 ft 313 kts 92°
2026-04-21 22:21 -34.79322 -56.60161 12276 ft 316 kts 92°
2026-04-21 22:21 -34.79476 -56.57479 11832 ft 319 kts 92°
2026-04-21 22:22 -34.79636 -56.54777 11376 ft 321 kts 92°
2026-04-21 22:22 -34.79822 -56.52074 11027 ft 319 kts 92°
2026-04-21 22:22 -34.80005 -56.49399 10591 ft 317 kts 92°
2026-04-21 22:22 -34.80202 -56.46732 10107 ft 315 kts 94°
2026-04-21 22:23 -34.80429 -56.44096 9645 ft 311 kts 94°
2026-04-21 22:23 -34.80692 -56.41496 9165 ft 308 kts 96°
2026-04-21 22:23 -34.80992 -56.38943 8717 ft 304 kts 96°
2026-04-21 22:23 -34.81298 -56.36396 8197 ft 303 kts 96°
2026-04-21 22:24 -34.81601 -56.33887 7738 ft 298 kts 96°
2026-04-21 22:24 -34.81899 -56.31408 7228 ft 295 kts 96°
2026-04-21 22:24 -34.82197 -56.28979 6751 ft 292 kts 100°
2026-04-21 22:24 -34.83035 -56.26758 6267 ft 292 kts 130°
2026-04-21 22:25 -34.84662 -56.25341 5726 ft 290 kts 158°
2026-04-21 22:25 -34.86586 -56.24635 5208 ft 287 kts 167°
2026-04-21 22:25 -34.88494 -56.24006 4773 ft 282 kts 161°
2026-04-21 22:25 -34.90303 -56.23108 4273 ft 280 kts 154°
2026-04-21 22:26 -34.91994 -56.21923 3707 ft 280 kts 142°
2026-04-21 22:26 -34.93255 -56.20202 3307 ft 268 kts 113°
2026-04-21 22:26 -34.93507 -56.17989 2788 ft 246 kts 74°
2026-04-21 22:26 -34.92799 -56.16320 2525 ft 222 kts 47°
2026-04-21 22:27 -34.91767 -56.15046 2258 ft 202 kts 43°
2026-04-21 22:27 -34.90790 -56.13907 2037 ft 184 kts 43°
2026-04-21 22:27 -34.89936 -56.12842 1758 ft 169 kts 47°
2026-04-21 22:27 -34.89195 -56.11876 1473 ft 146 kts 52°
2026-04-21 22:28 -34.88627 -56.10906 1265 ft 133 kts 56°
2026-04-21 22:28 -34.88102 -56.10037 1100 ft 124 kts 53°
2026-04-21 22:28 -34.87590 -56.09208 1011 ft 121 kts 54°
2026-04-21 22:28 -34.87086 -56.08361 839 ft 124 kts 52°
2026-04-21 22:29 -34.86567 -56.07536 724 ft 124 kts 53°
2026-04-21 22:29 -34.86040 -56.06667 626 ft 129 kts 53°
2026-04-21 22:29 -34.85501 -56.05792 476 ft 127 kts 52°
2026-04-21 22:29 -34.84987 -56.04976 291 ft 116 kts 55°
2026-04-21 22:30 -34.84520 -56.04188 170 ft 114 kts 53°
2026-04-21 22:30 -34.84069 -56.03452 70 ft 98 kts 54°
2026-04-21 22:30 -34.83730 -56.02893 71 ft 70 kts 52°
2026-04-21 22:30 -34.83483 -56.02487 83 ft 52 kts 53°
2026-04-21 22:31 -34.83290 -56.02173 87 ft 42 kts 54°
2026-04-21 22:31 -34.83209 -56.02004 87 ft 8 kts 106°
2026-04-21 22:31 -34.83240 -56.01950 89 ft 8 kts 141°
2026-04-21 22:31 -34.83279 -56.01914 93 ft 7 kts 143°
2026-04-21 22:32 -34.83291 -56.01904 94 ft 0 kts 145°